SCP
0 0 0 0 0 0 0 0 0 0 0 0 0 0 0 0 0 0 0 0 0 0 0 0 0 0 0 0 0 0 0 0 0 0 0 0 0 0 0 0 0 0 0
0 0 0 0 0 0 0 0 0 0 0 0 0 0 0 0 0 0 0 0 0 0 0 0 0 0 0 0 0 0 0 0 0 0 0 0 0 0 0 0 0 0 0
0 0 0 0 0 0 0 0 0 0 0 0 0 0 0 0 0 0 0 0 0 0 0 0 0 0 0 0 0 0 0 0 0 0 0 0 0 0 0 0 0 0 0
0 0 0 0 0 0 0 0 0 0 0 0 0 0 0 0 0 0 0 0 0 0 0 0 0 0 0 0 0 0 0 0 0 0 0 0 0 0 0 0 0 0 0
0 0 0 0 0 0 0 0 0 0 0 0 0 0 0 0 0 0 0 0 0 0 0 0 0 0 0 0 0 0 0 0 0 0 0 0 0 0 0 0 0 0 0
0 0 0 0 0 0 0 0 0 0 0 0 0 0 0 0 0 0 0 0 0 0 0 0 0 0 0 0 0 0 0 0 0 0 0 0 0 0 0 0 0 0 0
0 0 0 0 0 0 0 0 0 0 0 0 0 0 0 0 0 0 0 0 0 0 0 0 0 0 0 0 0 0 0 0 0 0 0 0 0 0 0 0 0 0 0
0 0 0 0 0 0 0 0 0 0 0 0 0 0 0 0 0 0 0 0 0 0 0 0 0 0 0 0 0 0 0 0 0 0 0 0 0 0 0 0 0 0 0
0 0 0 0 0 0 0 0 0 0 0 0 0 0 0 0 0 0 0 0 0 0 0 0 0 0 0 0 0 0 0 0 0 0 0 0 0 0 0 0 0 0 0
0 0 0 0 0 0 0 0 0 0 0 0 0 0 0 0 0 0 0 0 0 0 0 0 0 0 0 0 0 0 0 0 0 0 0 0 0 0 0 0 0 0 0
0 0 0 0 0 0 0 0 0 0 0 0 0 0 0 0 0 0 0 0 0 0 0 0 0 0 0 0 0 0 0 0 0 0 0 0 0 0 0 0 0 0 0
0 0 0 0 0 0 0 0 0 0 0 0 0 0 0 0 0 0 0 0 0 0 0 0 0 0 0 0 0 0 0 0 0 0 0 0 0 0 0 0 0 0 0
0 0 0 0 0 0 0 0 0 0 0 0 0 0 0 0 0 0 0 0 0 0 0 0 0 0 0 0 0 0 0 0 0 0 0 0 0 0 0 0 0 0 0
-0 0 0 0 0 0 0 0 0 0 0 0 0 0 0 0 0 0 0 0 0 0 0 0 0 0 0 0 0 0 0 0 0 0 0 0 0 0 0 0 0 0 0
-0 -0 0 0 0 0 0 0 0 0 0 0 0 0 0 0 0 0 0 0 0 0 0 0 0 0 0 0 0 0 0 0 0 0 0 0 0 0 0 0 0 0 0
0 0 0 0 0 0 0 0 0 -0 -0 0 0 0 0 0 0 0 0 0 0 0 0 0 0 0 0 0 0 0 0 0 0 0 0 0 0 0 0 0 0 0 0
0 0 0 0 0 0 0 0 0 0 0 0 0 0 0 0 0 0 0 0 0 0 0 0 0 0 0 0 0 0 0 0 0 0 0 0 0 0 0 0 0 0 0
0 -0 -0 0 0 0 0 0 0 0 0 0 0 0 0 0 0 0 0 0 0 0 0 0 0 0 0 0 0 0 0 0 0 0 0 0 0 0 0 0 0 0 0
0 -0 0 0 0 0 0 0 0 0 0 0 0 0 0 0 0 0 0 0 0 0 0 0 0 0 0 0 0 0 0 0 0 0 0 0 0 0 0 0 0 0 0
0 -0 -0 0 0 0 0 0 0 0 0 0 0 0 0 0 0 0 0 0 0 0 0 0 0 0 0 0 0 0 0 0 0 0 0 0 0 0 0 0 0 0 0
0 0 0 0 0 0 0 0 0 0 0 0 0 0 0 0 0 0 0 0 0 0 0 0 0 0 0 0 0 0 0 0 0 0 0 0 0 0 0 0 0 0 0
0 0 0 0 0 0 0 0 0 0 0 0 0 0 0 0 0 0 0 0 0 0 0 0 0 0 0 0 0 0 0 0 0 0 0 0 0 0 0 0 0 0 0
0 0 0 0 0 0 0 0 0 0 0 0 0 0 0 0 0 0 0 0 0 0 0 0 0 0 0 0 0 0 0 0 0 0 0 0 0 0 0 0 0 0 0
0 0 0 0 0 0 0 0 0 0 0 0 0 0 0 0 0 0 0 0 0 0 0 0 0 0 0 0 0 0 0 0 0 0 0 0 0 0 0 0 0 0 0
0 0 0 0 0 0 0 0 0 0 0 0 0 0 0 0 0 0 0 0 0 0 0 0 0 0 0 0 0 0 0 0 0 0 0 0 0 0 0 0 0 0 0
0 0 0 0 0 0 0 0 0 0 0 0 0 0 0 0 0 0 0 0 0 0 0 0 0 0 0 0 0 0 0 0 0 0 0 0 0 0 0 0 0 0 0
Wind_Speed_500mb
38 46 77 86 89 72 70 74 66 68 64 62 63 70 80 80 57 30 33 21 25 23 30 25 27 23 14 7 7 6 15 21 26 25 27 31 32 33 35 37 40 40 39
27 33 47 73 76 83 82 70 58 62 77 67 77 88 63 30 28 19 24 22 24 28 33 20 15 9 2 4 13 11 11 13 14 15 19 23 29 32 35 33 34 35 34
33 26 31 48 68 79 73 71 73 71 45 20 49 54 30 25 25 17 26 27 34 30 25 20 13 9 12 13 10 6 7 10 11 13 17 21 26 27 28 28 25 25 28
37 29 25 32 43 56 66 69 73 71 45 34 38 39 26 30 25 30 26 45 38 30 25 25 22 18 15 10 7 4 5 9 12 14 17 21 25 30 33 35 30 30 28
37 28 24 25 33 41 52 59 65 55 52 71 61 62 51 56 47 54 48 50 37 35 31 25 20 17 11 4 2 5 8 11 14 16 19 23 27 31 34 38 39 36 38
39 27 20 23 24 36 38 52 59 69 80 81 75 73 74 64 62 48 41 41 39 32 27 22 15 10 7 3 4 9 9 11 15 19 22 25 27 30 34 38 41 46 39
35 25 20 22 26 30 35 41 52 65 74 75 74 70 64 56 48 46 37 35 31 25 23 19 18 15 13 12 10 10 12 15 17 21 25 29 30 35 40 39 37 40 46
27 20 17 19 23 29 34 41 50 60 49 49 58 54 55 61 41 42 31 30 27 26 27 25 19 17 15 10 9 10 13 17 21 26 29 32 34 35 37 40 41 38 40
18 14 12 13 19 25 29 35 41 45 50 51 55 59 44 51 36 28 29 34 30 25 23 20 17 13 8 6 7 11 16 21 24 26 28 27 33 34 34 37 39 41 41
10 12 15 19 25 30 39 51 57 56 58 51 46 39 36 34 33 30 29 27 29 27 25 18 14 8 6 8 11 15 16 18 22 24 26 28 28 33 36 37 37 40 41
18 26 36 38 48 57 62 63 63 60 54 45 36 34 33 34 37 33 27 22 19 18 16 11 6 4 8 11 15 14 19 23 22 23 25 28 30 31 33 36 36 36 36
36 45 52 59 60 60 62 66 61 56 48 44 43 45 40 39 34 30 26 22 19 11 9 3 3 10 13 15 15 19 22 23 22 24 25 28 30 32 33 33 32 32 34
52 54 56 59 59 48 46 46 44 39 36 37 34 30 29 33 31 27 23 17 12 6 4 5 10 13 14 15 17 20 22 22 22 24 25 29 32 34 33 30 30 28 29
61 54 51 52 53 51 49 45 39 33 32 30 31 34 34 33 29 24 19 14 10 6 8 11 14 15 16 19 20 21 24 24 24 25 29 31 32 30 30 32 32 32 31
46 46 43 44 41 41 39 32 28 22 20 19 22 22 22 22 21 18 13 11 10 12 15 16 18 20 20 21 22 23 24 27 28 29 30 30 29 28 28 31 33 34 35
25 26 26 25 26 23 21 24 26 28 24 25 24 20 19 20 17 15 16 19 20 22 21 22 24 25 23 22 22 26 26 28 29 29 29 29 27 27 28 30 33 36 38
14 14 15 16 15 13 13 15 16 21 25 25 22 20 22 25 26 27 29 27 27 29 26 25 24 24 23 25 26 26 27 28 30 29 27 24 25 27 30 33 36 38 39
13 12 11 11 10 11 12 13 16 17 19 24 27 30 31 32 32 35 36 34 31 29 27 23 24 28 27 26 26 26 28 30 29 26 22 23 26 28 29 33 37 42 43
10 9 9 11 12 12 13 17 19 22 25 26 30 33 36 37 35 34 38 32 33 31 27 26 27 26 26 26 27 28 28 26 23 19 21 24 27 28 32 37 42 42 44
23 23 20 16 14 13 16 18 19 22 25 28 32 33 36 39 39 37 32 28 29 28 27 27 27 26 26 26 27 27 25 22 20 19 21 25 28 32 37 42 44 46 45
22 24 25 25 24 23 24 25 26 31 35 39 38 38 38 40 37 37 35 34 32 30 29 28 26 25 25 25 26 24 20 18 19 21 24 28 32 36 41 44 47 47 49
24 25 26 26 25 27 27 28 30 32 32 33 33 36 39 43 39 40 42 40 37 34 30 28 27 25 25 24 21 17 15 16 21 25 28 33 38 42 46 49 50 49 47
31 31 33 34 33 33 32 32 34 34 34 35 35 37 43 45 41 42 42 40 36 32 29 27 25 23 19 18 14 14 15 20 26 31 35 39 42 46 50 53 52 47 42
33 35 38 38 38 36 34 35 36 36 35 36 37 40 42 42 41 40 38 35 32 29 26 24 22 17 15 13 14 16 20 26 32 38 44 47 49 49 50 47 40 38 45
37 40 40 39 37 36 37 37 35 34 36 38 40 41 39 37 38 37 33 30 28 25 23 20 15 14 13 13 16 21 26 32 37 42 46 49 50 47 43 40 41 50 53
37 36 35 35 34 33 30 31 33 36 38 39 38 36 33 32 32 32 30 27 24 23 18 13 13 11 12 16 20 26 31 37 41 41 44 44 43 43 40 45 53 61 61
Wind_Direction_500mb
268 243 234 243 244 255 261 261 248 248 247 241 236 235 235 230 209 170 177 192 178 201 209 218 233 215 215 225 286 239 207 212 224 237 259 275 286 298 309 316 317 318 319
300 268 239 230 240 239 246 243 250 251 247 242 240 232 203 155 139 163 198 209 210 219 215 193 204 185 195 221 226 229 242 252 259 254 272 284 296 302 303 311 318 319 318
311 290 264 236 225 232 238 236 243 251 237 281 200 150 135 121 156 132 192 216 216 209 203 181 176 161 202 214 224 253 281 287 294 291 291 297 304 312 315 325 329 328 330
308 299 262 255 241 232 229 239 240 231 230 241 188 216 217 260 227 202 204 200 191 176 169 167 168 180 192 201 219 260 312 320 319 324 322 322 327 332 337 337 342 345 340
307 296 284 248 243 247 235 224 209 219 215 206 203 198 208 199 210 201 189 184 171 166 167 169 174 173 172 172 60 17 1 348 337 339 341 337 335 338 341 344 344 348 337
308 297 280 267 249 233 232 227 215 200 196 198 203 200 193 188 182 176 165 157 153 162 166 161 152 139 130 113 73 36 17 10 358 346 341 338 338 341 341 342 345 345 346
306 295 277 261 251 243 233 221 213 199 192 190 188 184 175 160 142 141 155 151 148 153 147 144 140 140 127 86 50 30 13 360 353 350 344 335 335 342 342 337 342 343 336
303 282 264 253 247 237 227 214 200 199 190 175 173 155 144 130 137 137 160 151 144 151 152 138 135 112 91 60 31 13 1 358 353 354 347 340 332 337 333 333 338 342 333
286 264 240 228 226 217 209 200 188 174 153 146 138 139 147 132 138 150 175 148 142 149 136 126 119 121 90 39 7 3 3 357 348 343 334 333 326 329 330 330 327 335 338
247 205 181 182 186 175 169 155 147 146 141 137 135 132 132 137 148 153 164 145 142 148 135 144 140 116 61 8 6 6 355 342 340 338 334 327 324 328 330 332 333 341 344
165 160 154 146 149 145 141 137 132 127 123 120 132 140 142 144 148 148 153 129 133 152 153 144 126 9 7 349 352 353 338 337 337 332 330 323 323 326 328 332 339 344 343
142 138 135 136 134 132 129 122 118 120 132 140 153 153 150 149 149 150 147 154 150 160 143 122 353 334 330 330 338 334 335 335 333 334 325 321 321 330 333 334 341 345 344
135 131 130 127 122 122 124 122 123 126 137 143 144 147 161 164 156 158 161 166 156 184 225 274 305 308 314 325 335 331 336 334 330 329 324 324 330 329 332 333 336 340 341
126 122 127 127 126 128 131 128 129 138 148 161 180 177 165 165 167 173 178 186 195 228 267 286 291 291 309 318 320 324 326 324 329 328 325 327 326 323 322 322 327 330 329
128 128 128 124 126 135 139 142 144 170 186 183 174 173 173 177 180 191 199 218 233 253 269 275 283 290 299 299 307 314 319 323 327 325 322 323 321 321 323 325 326 328 333
142 148 151 142 142 152 154 160 167 171 179 182 182 183 186 198 212 227 233 243 255 266 269 275 279 278 280 295 304 310 313 313 318 321 325 323 320 319 321 324 327 330 332
139 138 131 125 131 141 151 171 184 189 195 199 202 208 215 223 231 237 250 261 270 267 262 265 269 279 285 291 296 299 306 313 317 317 314 311 313 318 324 325 324 324 327
142 138 130 122 142 167 181 188 197 209 221 219 221 226 232 241 249 254 258 261 256 255 263 272 274 272 277 283 293 302 307 308 307 307 311 314 314 318 321 320 322 322 322
171 161 170 179 185 191 204 213 213 215 219 222 229 234 240 248 250 255 267 260 254 260 265 262 262 270 280 291 298 300 301 301 302 307 308 305 307 316 321 319 317 318 321
198 202 207 211 218 230 238 241 243 245 247 247 248 250 248 247 244 248 253 251 256 261 263 264 268 274 283 291 296 299 300 299 298 301 302 306 315 318 316 316 318 320 321
220 222 226 231 236 240 242 244 243 239 238 239 241 243 248 250 252 252 255 258 261 262 263 265 270 276 284 292 297 295 290 287 293 301 306 308 312 313 313 315 317 318 318
243 247 251 258 260 261 261 256 253 256 256 254 250 246 249 252 255 255 257 258 260 263 265 264 267 274 285 289 288 283 285 292 297 304 308 312 315 314 313 314 316 315 315
254 261 266 269 269 270 262 257 255 255 256 257 258 259 260 266 261 257 255 256 257 255 255 258 267 280 287 282 276 281 289 294 302 310 313 314 312 311 311 313 314 314 315
252 263 265 264 264 257 252 250 251 255 260 264 264 264 264 263 257 254 254 252 249 248 251 261 273 279 269 262 271 286 298 305 309 311 311 310 310 311 310 309 311 317 319
260 265 262 256 250 248 246 249 257 266 267 266 270 268 263 255 252 251 248 243 241 242 255 263 264 252 252 273 294 302 305 306 307 308 308 308 309 310 313 313 317 318 317
264 261 255 250 247 250 260 272 275 274 273 272 270 265 258 249 242 240 238 235 233 244 247 242 233 237 260 282 296 303 305 306 308 309 307 307 314 318 314 312 315 316 312
Wind_Speed_850mb
38 46 77 86 89 72 70 74 66 68 64 62 63 70 80 80 57 30 33 21 25 23 30 25 27 23 14 7 7 6 15 21 26 25 27 31 32 33 35 37 40 40 39
27 33 47 73 76 83 82 70 58 62 77 67 77 88 63 30 28 19 24 22 24 28 33 20 15 9 2 4 13 11 11 13 14 15 19 23 29 32 35 33 34 35 34
33 26 31 48 68 79 73 71 73 71 45 20 49 54 30 25 25 17 26 27 34 30 25 20 13 9 12 13 10 6 7 10 11 13 17 21 26 27 28 28 25 25 28
37 29 25 32 43 56 66 69 73 71 45 34 38 39 26 30 25 30 26 45 38 30 25 25 22 18 15 10 7 4 5 9 12 14 17 21 25 30 33 35 30 30 28
37 28 24 25 33 41 52 59 65 55 52 71 61 62 51 56 47 54 48 50 37 35 31 25 20 17 11 4 2 5 8 11 14 16 19 23 27 31 34 38 39 36 38
39 27 20 23 24 36 38 52 59 69 80 81 75 73 74 64 62 48 41 41 39 32 27 22 15 10 7 3 4 9 9 11 15 19 22 25 27 30 34 38 41 46 39
35 25 20 22 26 30 35 41 52 65 74 75 74 70 64 56 48 46 37 35 31 25 23 19 18 15 13 12 10 10 12 15 17 21 25 29 30 35 40 39 37 40 46
27 20 17 19 23 29 34 41 50 60 49 49 58 54 55 61 41 42 31 30 27 26 27 25 19 17 15 10 9 10 13 17 21 26 29 32 34 35 37 40 41 38 40
18 14 12 13 19 25 29 35 41 45 50 51 55 59 44 51 36 28 29 34 30 25 23 20 17 13 8 6 7 11 16 21 24 26 28 27 33 34 34 37 39 41 41
10 12 15 19 25 30 39 51 57 56 58 51 46 39 36 34 33 30 29 27 29 27 25 18 14 8 6 8 11 15 16 18 22 24 26 28 28 33 36 37 37 40 41
18 26 36 38 48 57 62 63 63 60 54 45 36 34 33 34 37 33 27 22 19 18 16 11 6 4 8 11 15 14 19 23 22 23 25 28 30 31 33 36 36 36 36
36 45 52 59 60 60 62 66 61 56 48 44 43 45 40 39 34 30 26 22 19 11 9 3 3 10 13 15 15 19 22 23 22 24 25 28 30 32 33 33 32 32 34
52 54 56 59 59 48 46 46 44 39 36 37 34 30 29 33 31 27 23 17 12 6 4 5 10 13 14 15 17 20 22 22 22 24 25 29 32 34 33 30 30 28 29
61 54 51 52 53 51 49 45 39 33 32 30 31 34 34 33 29 24 19 14 10 6 8 11 14 15 16 19 20 21 24 24 24 25 29 31 32 30 30 32 32 32 31
46 46 43 44 41 41 39 32 28 22 20 19 22 22 22 22 21 18 13 11 10 12 15 16 18 20 20 21 22 23 24 27 28 29 30 30 29 28 28 31 33 34 35
25 26 26 25 26 23 21 24 26 28 24 25 24 20 19 20 17 15 16 19 20 22 21 22 24 25 23 22 22 26 26 28 29 29 29 29 27 27 28 30 33 36 38
14 14 15 16 15 13 13 15 16 21 25 25 22 20 22 25 26 27 29 27 27 29 26 25 24 24 23 25 26 26 27 28 30 29 27 24 25 27 30 33 36 38 39
13 12 11 11 10 11 12 13 16 17 19 24 27 30 31 32 32 35 36 34 31 29 27 23 24 28 27 26 26 26 28 30 29 26 22 23 26 28 29 33 37 42 43
10 9 9 11 12 12 13 17 19 22 25 26 30 33 36 37 35 34 38 32 33 31 27 26 27 26 26 26 27 28 28 26 23 19 21 24 27 28 32 37 42 42 44
23 23 20 16 14 13 16 18 19 22 25 28 32 33 36 39 39 37 32 28 29 28 27 27 27 26 26 26 27 27 25 22 20 19 21 25 28 32 37 42 44 46 45
22 24 25 25 24 23 24 25 26 31 35 39 38 38 38 40 37 37 35 34 32 30 29 28 26 25 25 25 26 24 20 18 19 21 24 28 32 36 41 44 47 47 49
24 25 26 26 25 27 27 28 30 32 32 33 33 36 39 43 39 40 42 40 37 34 30 28 27 25 25 24 21 17 15 16 21 25 28 33 38 42 46 49 50 49 47
31 31 33 34 33 33 32 32 34 34 34 35 35 37 43 45 41 42 42 40 36 32 29 27 25 23 19 18 14 14 15 20 26 31 35 39 42 46 50 53 52 47 42
33 35 38 38 38 36 34 35 36 36 35 36 37 40 42 42 41 40 38 35 32 29 26 24 22 17 15 13 14 16 20 26 32 38 44 47 49 49 50 47 40 38 45
37 40 40 39 37 36 37 37 35 34 36 38 40 41 39 37 38 37 33 30 28 25 23 20 15 14 13 13 16 21 26 32 37 42 46 49 50 47 43 40 41 50 53
37 36 35 35 34 33 30 31 33 36 38 39 38 36 33 32 32 32 30 27 24 23 18 13 13 11 12 16 20 26 31 37 41 41 44 44 43 43 40 45 53 61 61
Wind_Direction_850mb
268 243 234 243 244 255 261 261 248 248 247 241 236 235 235 230 209 170 177 192 178 201 209 218 233 215 215 225 286 239 207 212 224 237 259 275 286 298 309 316 317 318 319
300 268 239 230 240 239 246 243 250 251 247 242 240 232 203 155 139 163 198 209 210 219 215 193 204 185 195 221 226 229 242 252 259 254 272 284 296 302 303 311 318 319 318
311 290 264 236 225 232 238 236 243 251 237 281 200 150 135 121 156 132 192 216 216 209 203 181 176 161 202 214 224 253 281 287 294 291 291 297 304 312 315 325 329 328 330
308 299 262 255 241 232 229 239 240 231 230 241 188 216 217 260 227 202 204 200 191 176 169 167 168 180 192 201 219 260 312 320 319 324 322 322 327 332 337 337 342 345 340
307 296 284 248 243 247 235 224 209 219 215 206 203 198 208 199 210 201 189 184 171 166 167 169 174 173 172 172 60 17 1 348 337 339 341 337 335 338 341 344 344 348 337
308 297 280 267 249 233 232 227 215 200 196 198 203 200 193 188 182 176 165 157 153 162 166 161 152 139 130 113 73 36 17 10 358 346 341 338 338 341 341 342 345 345 346
306 295 277 261 251 243 233 221 213 199 192 190 188 184 175 160 142 141 155 151 148 153 147 144 140 140 127 86 50 30 13 360 353 350 344 335 335 342 342 337 342 343 336
303 282 264 253 247 237 227 214 200 199 190 175 173 155 144 130 137 137 160 151 144 151 152 138 135 112 91 60 31 13 1 358 353 354 347 340 332 337 333 333 338 342 333
286 264 240 228 226 217 209 200 188 174 153 146 138 139 147 132 138 150 175 148 142 149 136 126 119 121 90 39 7 3 3 357 348 343 334 333 326 329 330 330 327 335 338
247 205 181 182 186 175 169 155 147 146 141 137 135 132 132 137 148 153 164 145 142 148 135 144 140 116 61 8 6 6 355 342 340 338 334 327 324 328 330 332 333 341 344
165 160 154 146 149 145 141 137 132 127 123 120 132 140 142 144 148 148 153 129 133 152 153 144 126 9 7 349 352 353 338 337 337 332 330 323 323 326 328 332 339 344 343
142 138 135 136 134 132 129 122 118 120 132 140 153 153 150 149 149 150 147 154 150 160 143 122 353 334 330 330 338 334 335 335 333 334 325 321 321 330 333 334 341 345 344
135 131 130 127 122 122 124 122 123 126 137 143 144 147 161 164 156 158 161 166 156 184 225 274 305 308 314 325 335 331 336 334 330 329 324 324 330 329 332 333 336 340 341
126 122 127 127 126 128 131 128 129 138 148 161 180 177 165 165 167 173 178 186 195 228 267 286 291 291 309 318 320 324 326 324 329 328 325 327 326 323 322 322 327 330 329
128 128 128 124 126 135 139 142 144 170 186 183 174 173 173 177 180 191 199 218 233 253 269 275 283 290 299 299 307 314 319 323 327 325 322 323 321 321 323 325 326 328 333
142 148 151 142 142 152 154 160 167 171 179 182 182 183 186 198 212 227 233 243 255 266 269 275 279 278 280 295 304 310 313 313 318 321 325 323 320 319 321 324 327 330 332
139 138 131 125 131 141 151 171 184 189 195 199 202 208 215 223 231 237 250 261 270 267 262 265 269 279 285 291 296 299 306 313 317 317 314 311 313 318 324 325 324 324 327
142 138 130 122 142 167 181 188 197 209 221 219 221 226 232 241 249 254 258 261 256 255 263 272 274 272 277 283 293 302 307 308 307 307 311 314 314 318 321 320 322 322 322
171 161 170 179 185 191 204 213 213 215 219 222 229 234 240 248 250 255 267 260 254 260 265 262 262 270 280 291 298 300 301 301 302 307 308 305 307 316 321 319 317 318 321
198 202 207 211 218 230 238 241 243 245 247 247 248 250 248 247 244 248 253 251 256 261 263 264 268 274 283 291 296 299 300 299 298 301 302 306 315 318 316 316 318 320 321
220 222 226 231 236 240 242 244 243 239 238 239 241 243 248 250 252 252 255 258 261 262 263 265 270 276 284 292 297 295 290 287 293 301 306 308 312 313 313 315 317 318 318
243 247 251 258 260 261 261 256 253 256 256 254 250 246 249 252 255 255 257 258 260 263 265 264 267 274 285 289 288 283 285 292 297 304 308 312 315 314 313 314 316 315 315
254 261 266 269 269 270 262 257 255 255 256 257 258 259 260 266 261 257 255 256 257 255 255 258 267 280 287 282 276 281 289 294 302 310 313 314 312 311 311 313 314 314 315
252 263 265 264 264 257 252 250 251 255 260 264 264 264 264 263 257 254 254 252 249 248 251 261 273 279 269 262 271 286 298 305 309 311 311 310 310 311 310 309 311 317 319
260 265 262 256 250 248 246 249 257 266 267 266 270 268 263 255 252 251 248 243 241 242 255 263 264 252 252 273 294 302 305 306 307 308 308 308 309 310 313 313 317 318 317
264 261 255 250 247 250 260 272 275 274 273 272 270 265 258 249 242 240 238 235 233 244 247 242 233 237 260 282 296 303 305 306 308 309 307 307 314 318 314 312 315 316 312